Regional Weather Roundup
Issued by NWS Charleston, SC

Current Version | Previous Version | Graphics & Text | Print | Product List | Glossary On
Versions: 1 2 3 4 5 6 7 8 9 10 11 12 13 14 15 16 17 18 19 20 21 22 23 24 25 26 27 28 29 30 31 32 33 34 35 36 37 38 39 40 41 42 43 44 45 46 47 48 49 50
000
ASUS42 KCHS 201710
RWRCHS
REGIONAL WEATHER ROUNDUP
NATIONAL WEATHER SERVICE CHARLESTON SC
100 PM EDT MON OCT 20 2014

NOTE: "FAIR" INDICATES FEW OR NO CLOUDS BELOW 12,000 FEET WITH NO
SIGNIFICANT WEATHER AND/OR OBSTRUCTIONS TO VISIBILITY.

NOT ALL STATIONS ARE QUALITY CONTROLLED BY THE NATIONAL
WEATHER SERVICE. USE DATA WITH CAUTION...ESPECIALLY
DEWPOINT OBSERVATIONS.

SCZ027-030-031-034>040-042>050-201800-
...SOUTH CAROLINA...

CITY           SKY/WX    TMP DP  RH WIND       PRES   REMARKS
N CHARLESTON   MOSUNNY   77  56  48 SE8       30.09F
WATERFRONT PRK   N/A     75 N/A N/A E9          N/A
FORT JOHNSON   NOT AVBL
JOHNS ISLAND   MOSUNNY   73  63  68 E7        30.10F
PINOPOLIS        N/A     75  55  50 W5        30.01F
MONCKS CORNER  FAIR      73  59  60 CALM      30.08F
SUMMERVILLE    FAIR      73  57  56 CALM      30.09F
BEAUFORT MCAS  MOSUNNY   75  59  57 VRB6      30.09F
BEAUFORT ARPT  FAIR      73  61  64 SE3       30.08F
HILTON HEAD IS SUNNY     73  63  68 NE7       30.10F
GEORGETOWN     NOT AVBL
WALTERBORO     PTSUNNY   73  50  43 CALM      30.10F
ORANGEBURG     SUNNY     71  53  52 SW7       30.10F
BARNWELL       PTSUNNY   72  54  53 SW3       30.09F
AIKEN          FAIR      70  50  49 SW7       30.12F
MANNING        FAIR      72  55  56 S7        30.10F
KINGSTREE      NOT AVBL
COLUMBIA       MOSUNNY   71  44  37 SE3       30.08F
SUMTER         SUNNY     72  51  48 SW7       30.08F
FLORENCE       MOSUNNY   72  51  47 S6        30.10F
MYRTLE BEACH   SUNNY     72  54  53 SE9       30.12F
N MYRTLE BEACH SUNNY     71  55  56 SE8       30.10F

$$

GAZ063-065-086>088-099>101-113>116-118-119-134-136>141-150-201800-
...GEORGIA...

CITY           SKY/WX    TMP DP  RH WIND       PRES   REMARKS
SAVANNAH ARPT  PTSUNNY   77  58  51 CALM      30.08F
HUNTER AAF     PTSUNNY   75  60  60 SE3       30.06F
FORT STEWART   MOSUNNY   76  60  58 VRB2      30.06F
STATESBORO     NOT AVBL
SYLVANIA       SUNNY     78  61  57 CALM      30.09F
CLAXTON        FAIR      75  59  57 CALM      30.08F
THOMSON        SUNNY     72  56  57 SE6       30.13F
AUGUSTA-BUSH   MOSUNNY   72  49  44 VRB6      30.08F
AUGUSTA-DANIEL SUNNY     71  45  39 CALM      30.10F
SWAINSBORO     FAIR      75  55  50 MISG      30.09F
VIDALIA        MOSUNNY   73  59  60 SW5       30.08F
ALMA           MOSUNNY   76  60  57 SE5       30.07F
WAYCROSS       CLOUDY    79  66  64 S6        30.06F
JESUP          PTSUNNY   79  64  61 E5        30.07F
BRUNSWICK      PTSUNNY   79  59  50 E5        30.07F
SAINT SIMONS   SUNNY     76  61  59 SE9       30.06F

$$

SCZ027-028-034-036>038-045-046-048>050-GAZ119-141-201800-
...LAKE AND SUPPLEMENTAL COASTAL OBSERVATIONS...

STATION/POSITION TIME  TEMP    WIND        PRES    WAVE   SWELL
                       AIR SEA DIR/SP/G            HT/PER HT/PER/DIR
                 (UTC) (F)     (DEG/KT/KT) (MB)    (FT/S) (FT/S/D)
UPR LAKE MARION  NOT AVBL
WINYAH BAY       1600   68      60/ 10     1020.0S
LAKE MURRAY      1600   68     200/  3/  4 1019.3F
ACE BASIN NERRS  1600   74     110/  2     1020.0S
FORT PULASKI     1700   72      70/  8/ 10 1019.2S
SAPELO ISLAND    NOT AVBL

$$

ANZ835-935-AMZ111-154-330-350-352-354-374-450-454-472-201800-
...C-MAN AND BUOY OBSERVATIONS...

STATION/POSITION TIME  TEMP    WIND        PRES    WAVE   SWELL
                       AIR SEA DIR/SP/G            HT/PER HT/PER/DIR
                 (UTC) (F)     (DEG/KT/KT) (MB)    (FT/S) (FT/S/D)
FOLLY BEACH CMAN 1600   71      70/  8/  9 1020.4F
BUOY 41004       1700   73 80   80/  8/  8 1018.7F   2/10   2/10
BUOY 41008       1700   75 76  130/  8/ 10 1018.3F   2/ 8   2/ 90/ 8
5E ST. MARYS GA  1700      77                N/A     3/11   2/110/11
FRYING PAN BUOY  1700   69 75   60/  8/ 10 1020.4F   2/ 8   2/130/ 8
BUOY 41025       1700   66     310/  6/  8 1020.5F   3/11   3/ 60/11
CAPE LOOKOUT NC  1600   66      50/  5/  6 1020.9F
BUOY 41002       1603   71 80   70/  8/ 12 1020.2F   4/ 8   3/ 50/ 8
BUOY 41010       1700   78 80   90/ 14/ 17 1017.4F   4/ 7   2/ 20/ 7
BUOY 41012       NOT AVBL
ST AUGUSTINE FL  1700   76     110/  7/  8 1018.0F
CAPERS NEARSHORE 1600   71      70/  8/ 10   N/A
FRIPP NEARSHORE  NOT AVBL


$$



USA.gov is the U.S. government's official web portal to all federal, state and local government web resources and services.